Wind_Speed
21 19 17 14 13 11 9 9 8 6 6 7 9 11 10 10 11 12 13 14 14 15 15 14 14 15 15 15 15 15 15 14 13 12 11 12 11 10 10 9 8 6 5 5
22 21 18 17 15 14 12 11 9 9 8 9 10 12 11 12 12 12 12 13 13 14 14 14 14 13 14 14 14 14 14 14 13 11 11 10 10 10 9 9 7 6 6 5
23 21 21 19 17 16 14 13 13 12 11 10 11 12 12 12 12 11 11 12 13 14 13 13 13 13 13 13 13 14 14 14 12 10 10 9 9 9 8 7 7 6 6 5
25 24 24 22 20 18 16 15 16 15 14 13 13 14 13 13 13 13 12 13 13 13 13 13 12 12 12 12 13 14 14 13 12 10 8 8 8 8 8 7 6 6 6 5
27 26 25 24 22 20 19 18 17 16 16 16 15 16 14 14 14 13 12 12 14 14 14 14 12 11 12 12 12 13 13 12 11 10 8 7 7 8 7 7 6 6 6 5
27 27 26 25 23 22 20 20 19 18 18 18 17 18 16 14 15 14 12 13 14 14 14 13 11 11 11 11 11 12 12 12 11 10 8 7 7 7 7 7 7 6 6 6
29 28 27 26 25 24 23 22 21 21 21 20 18 20 18 14 15 14 13 13 13 14 14 13 11 11 10 10 11 11 11 11 10 10 8 7 7 7 7 6 7 7 7 7
30 29 28 27 26 25 24 24 23 22 22 22 21 21 18 16 14 13 14 14 13 14 14 13 11 11 11 10 10 10 11 11 10 9 8 7 6 6 6 6 6 7 7 7
30 28 27 27 26 26 25 25 24 23 23 24 23 21 19 16 15 14 14 14 14 14 14 13 12 11 11 10 11 10 10 10 10 9 8 7 6 6 7 7 6 7 7 7
30 29 28 27 27 27 26 25 26 25 25 25 24 22 19 18 17 16 16 15 15 16 15 13 12 12 11 11 10 10 10 10 10 10 10 8 8 8 7 8 7 7 7 8
32 31 30 29 29 28 28 28 28 27 26 26 25 23 20 19 18 18 17 16 16 15 14 12 12 11 11 11 10 10 10 10 10 10 10 9 9 8 8 8 8 7 8 8
32 32 32 31 29 28 30 29 28 28 27 27 27 25 22 21 20 18 18 17 16 15 14 13 13 13 12 12 11 11 11 11 11 10 10 10 10 9 9 8 8 8 8 8
34 33 32 32 32 30 31 30 29 29 29 30 29 26 24 23 23 22 21 19 17 18 17 15 14 14 13 12 12 11 11 12 11 11 11 11 10 10 9 9 9 9 8 9
35 35 34 33 32 31 31 31 30 30 32 31 30 28 26 25 24 24 23 21 20 19 18 17 17 15 14 13 13 13 12 12 12 12 11 11 10 10 10 10 10 10 10 10
36 36 35 34 33 31 31 31 31 30 30 30 29 29 27 26 26 26 24 22 22 21 21 20 18 17 16 16 16 15 14 13 12 12 11 12 11 12 12 12 11 11 12 11
38 37 36 35 33 33 32 31 31 30 29 29 29 29 29 28 29 28 26 25 24 22 23 22 20 20 18 18 17 15 15 12 11 12 12 13 13 13 13 13 13 13 13 13
39 38 37 35 34 33 34 32 31 30 29 29 29 29 30 30 30 30 28 27 25 23 23 23 22 21 21 20 18 17 14 13 13 13 13 14 14 14 14 13 14 14 14 14
38 38 38 36 35 36 34 32 32 31 30 29 28 27 28 30 30 30 30 29 28 26 24 23 22 21 22 21 20 18 17 16 14 13 14 14 15 15 15 15 15 15 15 15
36 37 37 37 37 38 35 32 33 33 32 30 30 29 29 29 30 29 30 30 29 26 25 24 23 23 23 22 21 20 19 18 17 16 16 16 16 16 16 16 16 17 17 17
36 36 38 38 38 39 36 33 33 33 34 33 32 32 31 30 30 30 30 30 29 27 26 26 26 25 25 24 23 22 20 19 18 17 17 17 18 18 18 18 18 18 18 18
37 36 38 38 39 38 36 35 34 35 34 32 32 32 33 32 31 30 30 29 29 27 26 26 27 27 25 24 24 23 22 21 20 20 19 19 19 19 19 19 19 18 18 18
36 38 37 38 39 38 35 35 36 35 34 33 32 32 32 32 31 30 30 29 29 28 27 26 26 25 25 25 24 23 22 21 21 21 21 21 21 21 21 21 20 20 20 20
36 37 37 37 37 36 36 35 35 35 34 34 32 32 31 31 30 30 30 29 29 28 27 27 26 25 25 24 24 23 23 23 22 22 23 23 22 22 22 22 22 22 21 21
36 36 37 37 37 37 37 37 36 35 35 34 32 32 31 29 29 29 30 30 29 29 29 28 27 26 26 25 24 24 23 23 23 24 24 24 23 23 23 23 23 23 23 23
36 36 37 38 38 37 37 36 35 34 34 35 34 33 33 33 32 32 31 30 30 29 29 28 27 26 26 25 25 24 24 25 25 25 24 24 24 24 25 25 24 23 23 22
35 36 38 38 37 37 36 35 34 34 34 34 35 34 32 33 32 32 32 31 31 30 29 28 27 26 25 25 25 26 26 26 25 25 25 25 26 26 27 26 25 24 24 24
Wind_Direction
210 207 208 208 204 199 200 209 221 235 268 285 302 314 330 342 351 359 1 5 8 10 11 12 13 15 19 21 23 22 21 22 23 26 26 26 28 30 29 27 30 34 32 31
213 210 209 212 211 209 208 209 216 231 241 260 280 296 309 322 334 343 351 359 360 359 2 3 6 10 13 16 18 17 17 16 15 19 22 23 25 27 29 29 27 31 35 33
217 215 214 214 216 215 213 214 217 228 233 248 265 277 289 305 317 328 337 346 350 352 355 357 360 3 6 9 10 12 11 10 11 14 18 21 21 21 25 28 27 28 28 27
218 218 219 218 217 219 219 218 220 225 232 242 256 265 275 286 298 311 322 330 340 342 346 348 350 353 357 1 4 6 5 6 8 8 12 17 19 22 23 24 25 25 23 20
220 221 223 223 221 221 221 220 222 227 233 239 247 256 266 275 285 300 314 324 333 335 335 336 339 342 346 352 358 1 1 3 6 6 8 12 18 23 23 23 20 15 12 11
221 221 224 225 224 220 220 222 223 228 231 235 241 251 261 271 282 288 304 317 325 328 325 327 330 333 334 338 348 354 357 358 2 5 8 9 12 16 19 18 15 9 7 6
222 222 223 224 223 219 219 222 224 226 230 234 238 247 258 270 281 285 297 307 315 319 320 321 321 325 325 327 335 344 350 352 357 2 5 4 5 9 10 9 5 7 9 7
223 222 223 224 224 222 222 224 226 228 231 234 238 247 257 263 271 279 289 296 304 311 316 319 318 316 322 323 327 336 348 348 351 354 358 358 356 357 358 355 356 0 2 358
225 225 224 226 225 225 225 226 228 229 233 236 239 246 252 256 262 272 283 290 296 303 308 311 316 314 316 317 321 329 342 343 343 345 346 346 345 341 342 345 346 351 350 349
227 227 226 226 225 225 225 225 227 230 233 237 240 243 250 256 261 270 279 288 289 296 299 304 310 312 318 320 320 320 335 343 344 343 340 333 332 335 331 333 339 342 341 340
227 228 226 227 228 226 224 224 228 232 236 239 242 244 247 252 257 268 277 283 286 290 293 298 303 308 313 313 313 317 323 327 332 334 333 329 324 324 327 328 328 328 330 330
225 227 226 228 229 228 228 229 230 233 235 237 241 243 243 248 255 263 273 279 283 285 287 292 297 301 305 307 309 312 314 318 322 324 323 323 321 319 320 320 319 317 319 320
224 226 226 227 228 226 227 229 230 233 234 235 240 245 244 249 255 259 265 268 274 278 282 286 290 294 295 298 301 305 307 309 310 312 313 314 314 313 313 315 316 315 315 319
224 227 228 229 230 229 229 229 230 233 234 236 241 246 247 249 252 256 263 267 273 278 281 281 284 287 285 285 287 291 297 300 302 304 305 307 306 306 308 309 308 309 311 312
224 226 227 228 229 230 231 231 232 234 236 237 240 245 249 248 248 252 259 266 273 276 279 276 276 278 278 281 282 282 286 289 289 292 299 302 303 301 302 302 302 303 306 306
224 226 226 227 228 229 231 231 232 234 237 239 241 245 246 247 249 253 257 265 268 272 276 277 276 276 277 279 280 283 285 284 286 288 291 296 301 300 297 296 295 298 300 301
224 226 225 225 226 228 230 230 233 235 238 240 242 244 246 247 250 254 258 263 264 267 271 274 274 274 275 276 278 278 281 284 286 288 290 292 296 296 294 293 295 296 296 298
225 226 225 225 226 228 231 230 232 235 238 240 243 245 246 249 252 256 258 262 265 265 268 271 273 273 273 276 278 277 280 278 278 282 288 292 294 293 291 291 293 295 298 298
226 227 226 225 227 231 231 230 232 234 238 241 244 246 248 249 252 256 260 263 267 264 266 268 270 269 269 272 273 276 275 276 280 280 283 286 290 290 290 291 292 295 297 296
227 228 226 226 227 230 230 231 233 236 239 240 243 245 249 251 253 257 260 263 264 267 267 268 269 267 267 269 269 272 271 271 276 279 280 281 284 287 286 287 290 293 296 296
226 227 226 227 229 231 231 231 234 237 240 241 243 245 247 250 254 256 259 260 263 267 268 268 268 266 263 264 268 271 268 270 274 276 278 279 281 284 284 284 287 291 294 295
228 228 227 228 230 231 233 234 236 239 241 242 243 245 246 248 252 254 258 259 263 266 267 268 270 267 267 269 268 269 270 272 273 275 277 280 282 283 286 284 284 287 291 294
227 228 229 230 232 233 234 236 238 240 241 242 243 244 247 248 251 256 257 259 261 264 265 267 268 269 269 272 273 269 271 273 274 277 278 280 281 282 283 284 285 287 288 290
229 228 230 231 232 234 235 236 238 239 241 244 244 244 247 248 251 255 256 258 260 262 264 266 267 268 268 270 272 270 271 273 274 276 279 279 279 280 280 281 283 286 288 288
230 230 232 233 234 234 235 236 238 240 241 242 244 246 247 250 252 252 254 257 260 262 264 266 267 266 265 267 269 269 270 271 274 275 278 280 280 280 279 280 280 283 285 288
229 229 230 232 233 234 236 238 239 241 243 244 244 247 246 246 248 251 254 256 259 262 264 265 266 266 265 267 269 268 269 271 274 275 276 278 279 279 278 279 280 282 285 287
Height
5931 5935 5937 5939 5941 5943 5943 5944 5945 5946 5947 5947 5946 5947 5947 5947 5946 5946 5945 5944 5942 5941 5939 5937 5935 5932 5930 5927 5925 5923 5920 5918 5916 5914 5912 5910 5909 5907 5906 5904 5903 5902 5901 5900
5929 5932 5935 5936 5938 5939 5941 5942 5943 5944 5945 5945 5945 5945 5945 5945 5945 5946 5945 5944 5943 5941 5939 5937 5935 5933 5930 5928 5926 5924 5921 5919 5916 5914 5913 5911 5909 5908 5906 5905 5903 5902 5901 5900
5925 5929 5931 5932 5935 5936 5938 5940 5942 5942 5943 5943 5944 5944 5943 5943 5944 5944 5944 5944 5942 5941 5939 5937 5935 5933 5931 5928 5926 5924 5921 5919 5916 5914 5913 5911 5909 5908 5906 5905 5904 5902 5901 5900
5920 5924 5926 5928 5931 5933 5935 5937 5939 5940 5941 5941 5943 5942 5942 5942 5942 5942 5943 5943 5942 5940 5939 5937 5935 5933 5931 5929 5926 5924 5921 5919 5916 5914 5912 5911 5909 5908 5906 5905 5904 5903 5901 5900
5916 5919 5922 5924 5928 5930 5932 5934 5935 5937 5938 5939 5939 5939 5941 5940 5940 5941 5941 5941 5940 5939 5938 5937 5935 5933 5931 5928 5926 5924 5921 5918 5916 5914 5912 5911 5909 5908 5907 5905 5904 5903 5901 5900
5910 5914 5916 5920 5923 5926 5928 5930 5932 5933 5934 5935 5936 5936 5937 5937 5938 5939 5939 5939 5939 5938 5936 5935 5934 5932 5930 5928 5926 5923 5921 5919 5916 5914 5912 5911 5909 5908 5907 5905 5904 5903 5902 5900
5904 5908 5911 5915 5918 5921 5924 5926 5928 5929 5930 5931 5933 5933 5934 5935 5936 5936 5936 5936 5936 5936 5934 5933 5932 5931 5928 5926 5925 5922 5920 5918 5916 5914 5912 5911 5909 5908 5907 5905 5904 5903 5901 5900
5898 5903 5906 5910 5913 5916 5919 5922 5924 5926 5927 5928 5929 5929 5931 5932 5933 5933 5933 5933 5933 5933 5932 5931 5929 5929 5927 5925 5923 5921 5919 5918 5915 5913 5912 5910 5909 5908 5906 5905 5904 5902 5901 5900
5893 5898 5902 5905 5908 5911 5914 5917 5919 5921 5922 5923 5924 5926 5927 5928 5929 5930 5930 5931 5931 5930 5930 5929 5928 5927 5926 5924 5922 5921 5919 5916 5914 5913 5911 5910 5909 5907 5906 5904 5902 5901 5900 5899
5887 5892 5896 5899 5902 5905 5909 5912 5914 5915 5917 5918 5920 5921 5924 5925 5926 5926 5927 5927 5927 5927 5927 5927 5926 5924 5924 5922 5921 5919 5917 5916 5914 5912 5911 5909 5908 5907 5905 5904 5902 5901 5899 5898
5881 5885 5889 5893 5896 5900 5903 5906 5908 5910 5912 5914 5915 5919 5920 5921 5922 5922 5923 5923 5923 5923 5924 5924 5923 5922 5921 5920 5919 5917 5916 5915 5913 5911 5910 5908 5907 5905 5904 5902 5901 5899 5898 5896
5874 5878 5882 5886 5891 5894 5897 5900 5903 5905 5907 5909 5910 5915 5915 5916 5917 5918 5918 5919 5920 5920 5921 5921 5920 5919 5918 5917 5916 5915 5914 5913 5911 5910 5908 5907 5905 5903 5902 5901 5899 5898 5896 5895
5867 5871 5875 5879 5885 5887 5890 5894 5897 5899 5901 5903 5905 5910 5910 5911 5912 5913 5914 5915 5915 5916 5916 5916 5916 5915 5915 5914 5914 5913 5912 5911 5909 5907 5906 5904 5903 5901 5900 5899 5897 5896 5895 5893
5860 5864 5869 5873 5877 5880 5883 5887 5890 5892 5894 5897 5899 5902 5904 5906 5907 5909 5909 5910 5910 5910 5911 5911 5911 5911 5912 5911 5910 5910 5909 5908 5906 5904 5903 5902 5901 5899 5898 5897 5895 5894 5893 5891
5852 5857 5861 5866 5871 5874 5877 5880 5883 5886 5888 5891 5894 5896 5899 5901 5902 5903 5905 5905 5906 5906 5906 5906 5906 5907 5907 5907 5906 5905 5905 5903 5902 5901 5900 5899 5898 5897 5896 5894 5893 5892 5890 5889
5844 5850 5855 5859 5864 5867 5870 5874 5877 5880 5883 5885 5888 5890 5893 5894 5896 5897 5899 5900 5901 5901 5901 5901 5902 5902 5902 5902 5901 5901 5900 5897 5897 5897 5897 5896 5895 5894 5893 5891 5890 5889 5888 5886
5838 5843 5848 5853 5857 5860 5863 5868 5871 5874 5876 5879 5881 5884 5886 5887 5889 5891 5893 5895 5895 5896 5897 5897 5897 5897 5897 5897 5897 5897 5895 5894 5894 5894 5893 5891 5891 5890 5889 5888 5887 5885 5884 5883
5832 5836 5841 5846 5851 5853 5860 5863 5865 5868 5870 5873 5876 5877 5879 5881 5883 5884 5886 5888 5889 5890 5891 5892 5892 5892 5892 5892 5892 5892 5891 5890 5890 5890 5889 5888 5887 5886 5885 5884 5883 5881 5880 5879
5825 5829 5834 5838 5842 5846 5852 5856 5859 5861 5863 5867 5869 5871 5873 5875 5877 5878 5880 5881 5882 5883 5885 5886 5886 5887 5887 5887 5887 5887 5886 5885 5885 5886 5885 5884 5883 5882 5881 5880 5879 5877 5876 5874
5818 5822 5827 5831 5835 5838 5846 5850 5851 5855 5857 5860 5862 5865 5867 5869 5871 5873 5874 5875 5876 5877 5879 5880 5880 5880 5881 5881 5881 5881 5880 5880 5881 5881 5880 5879 5879 5877 5876 5875 5874 5873 5871 5870
5810 5814 5818 5823 5826 5831 5838 5842 5844 5848 5851 5854 5856 5858 5860 5863 5865 5868 5868 5869 5870 5871 5872 5873 5873 5873 5874 5874 5875 5876 5876 5876 5875 5875 5874 5874 5873 5872 5871 5870 5869 5868 5866 5865
5803 5807 5811 5815 5819 5826 5831 5834 5837 5840 5844 5846 5848 5851 5853 5856 5858 5860 5861 5863 5864 5865 5866 5866 5866 5866 5867 5867 5868 5869 5869 5869 5869 5869 5869 5868 5867 5866 5865 5864 5863 5862 5861 5860
5796 5801 5805 5810 5815 5819 5822 5826 5829 5832 5835 5838 5841 5843 5846 5848 5850 5852 5854 5855 5857 5858 5859 5859 5859 5860 5861 5861 5861 5862 5863 5863 5863 5863 5863 5862 5861 5860 5859 5859 5858 5857 5855 5854
5789 5793 5797 5801 5805 5810 5813 5817 5820 5823 5827 5830 5833 5836 5838 5840 5842 5844 5846 5848 5849 5851 5852 5852 5853 5853 5854 5854 5855 5856 5856 5856 5856 5856 5856 5855 5855 5854 5853 5852 5851 5850 5849 5848
5782 5786 5790 5793 5797 5801 5804 5808 5812 5816 5819 5822 5825 5827 5830 5832 5834 5837 5838 5840 5842 5843 5844 5845 5846 5846 5846 5847 5848 5848 5849 5849 5849 5849 5849 5848 5848 5847 5847 5846 5845 5844 5843 5841
5775 5778 5782 5786 5790 5794 5798 5801 5805 5808 5811 5813 5817 5820 5822 5824 5827 5828 5830 5832 5833 5834 5835 5837 5838 5839 5839 5840 5840 5841 5841 5842 5841 5842 5842 5842 5841 5841 5840 5839 5838 5837 5836 5835